Vorticity
5 4 -2 0 1 5 4 3 3 4 4 5 5 5 4 4 4 4 4 5 5 5 6 6 5 5 5 5 4 5 6 6 6 6 5 4 5 6 5 3 3 4 5
9 6 3 2 2 5 5 5 6 6 6 6 6 5 5 5 6 5 5 5 5 5 5 5 5 6 7 7 7 7 7 7 8 7 8 7 8 6 5 6 5 3 3
9 9 4 3 2 4 5 7 6 6 5 5 5 6 5 5 5 5 5 5 6 7 7 7 7 7 7 7 7 6 7 7 7 7 8 7 8 9 8 4 3 6 4
4 9 8 4 3 5 7 6 6 5 5 5 5 5 5 6 7 7 7 8 8 8 9 8 8 7 6 7 6 6 6 7 7 7 7 7 7 8 8 8 7 7 3
9 10 8 6 4 6 6 6 5 5 5 5 5 6 7 7 6 7 8 9 9 8 8 8 8 8 7 7 6 5 6 6 6 6 7 6 5 5 6 7 9 10 1
7 7 7 6 6 7 5 5 5 5 5 5 6 7 7 7 8 8 6 6 6 6 7 8 8 8 8 8 8 8 7 7 6 6 6 5 4 4 4 5 6 6 7
9 8 7 6 7 5 5 5 5 5 6 6 7 7 7 6 5 5 5 5 6 6 6 6 6 7 7 8 8 8 8 8 7 6 5 4 4 4 4 4 4 5 5
7 6 6 6 6 5 5 5 5 6 6 7 6 6 5 5 4 6 5 5 5 5 5 5 6 6 7 7 6 5 6 5 5 5 4 4 3 3 3 4 4 5 4
7 6 6 6 6 5 6 5 5 6 7 7 5 4 4 5 5 6 5 6 6 6 6 5 5 5 4 5 5 5 5 4 4 4 4 4 4 3 3 4 5 5 6
4 5 6 8 4 5 6 5 5 6 7 6 5 4 5 4 5 4 5 5 5 5 5 4 4 4 4 5 5 5 5 5 5 5 5 5 4 5 5 4 5 3 2
7 7 6 7 5 6 5 5 6 6 6 5 4 4 4 4 3 4 4 4 3 3 3 3 4 3 4 4 5 5 6 6 6 6 5 5 5 5 6 5 5 4 3
9 8 8 7 5 5 5 5 6 6 6 5 4 4 3 3 3 2 1 2 3 4 4 4 4 4 4 4 6 7 7 7 8 8 8 8 8 6 6 7 8 7 5
8 8 7 6 5 5 5 5 6 6 6 5 4 3 3 2 2 1 2 4 5 6 5 5 5 6 7 8 8 8 8 8 8 8 7 7 7 8 7 7 6 6 6
6 9 6 5 5 5 6 5 5 7 6 5 4 3 2 2 1 1 2 3 5 6 6 5 6 7 7 7 7 8 8 9 9 8 8 8 8 7 7 7 6 6 5
6 6 6 6 6 5 5 5 5 7 6 5 4 3 2 2 2 2 2 3 4 5 6 5 6 7 7 8 9 9 9 9 9 9 9 8 7 7 6 6 5 5 6
8 7 6 6 6 5 5 5 5 6 6 6 4 3 3 2 2 2 3 3 4 5 5 4 5 7 6 7 9 9 9 8 7 7 7 6 6 6 6 6 6 6 6
12 8 7 8 6 6 6 5 5 6 6 5 4 4 3 3 3 3 3 4 5 5 5 4 6 6 6 7 7 7 7 7 7 7 7 7 6 6 6 7 7 7 7
5 6 7 6 5 5 5 6 6 5 5 6 6 5 4 4 4 4 4 5 5 5 4 4 6 6 7 7 7 7 7 6 6 6 6 6 7 7 8 8 7 6 6
7 5 5 6 6 6 6 6 5 4 5 5 6 5 5 5 4 4 5 6 6 5 4 5 7 5 6 7 6 6 6 6 6 6 6 7 7 7 8 8 9 11 12
8 5 5 5 6 6 7 6 4 4 5 6 6 6 5 5 5 5 6 6 5 5 3 7 5 6 6 7 7 6 6 6 6 7 6 9 9 9 11 11 11 10 9
10 7 5 7 7 6 6 5 6 6 7 7 6 5 5 5 6 5 6 6 5 4 5 6 4 6 7 6 6 5 5 6 6 7 8 11 8 7 11 11 11 12 11
8 9 8 6 7 7 6 6 7 6 5 5 2 4 7 6 5 5 6 5 6 3 7 5 6 7 6 6 6 7 8 7 6 7 9 9 10 13 14 13 11 11 15
9 12 9 9 6 6 7 7 7 6 2 2 8 9 6 5 6 5 6 4 5 5 6 4 6 6 6 7 7 5 11 8 7 7 8 10 11 14 12 8 4 15 22
7 7 6 7 9 7 9 8 7 6 5 5 7 2 3 7 5 5 5 6 3 7 4 5 6 6 7 7 7 6 7 8 8 9 8 9 8 12 9 5 7 22 21
3 9 6 8 10 11 10 10 8 7 7 7 1 2 5 6 5 6 5 5 5 6 3 5 6 7 7 7 5 5 5 7 8 9 7 8 8 13 6 5 18 22 16
24 11 7 7 9 11 11 12 10 9 9 7 5 5 5 5 5 6 5 4 7 4 4 6 6 7 7 6 5 6 7 8 9 8 8 9 9 15 5 3 28 20 13
Height
3133 3135 3137 3138 3139 3141 3142 3143 3145 3144 3144 3145 3145 3146 3147 3147 3147 3148 3147 3148 3147 3148 3147 3147 3147 3146 3145 3145 3145 3146 3145 3145 3145 3144 3144 3145 3145 3145 3144 3144 3144 3144 3144
3133 3134 3136 3138 3138 3139 3141 3142 3143 3143 3143 3144 3143 3145 3146 3146 3146 3146 3146 3146 3146 3146 3146 3145 3145 3145 3145 3144 3144 3143 3143 3142 3142 3142 3142 3142 3143 3143 3143 3143 3143 3143 3142
3130 3132 3135 3136 3137 3138 3139 3140 3141 3142 3142 3142 3143 3143 3144 3145 3145 3145 3145 3145 3145 3145 3144 3145 3144 3144 3143 3143 3142 3141 3141 3141 3140 3140 3141 3140 3140 3141 3140 3141 3141 3141 3141
3130 3131 3133 3134 3135 3136 3137 3138 3139 3140 3140 3141 3141 3142 3143 3143 3143 3144 3144 3144 3143 3143 3143 3143 3143 3143 3142 3141 3140 3140 3139 3140 3139 3139 3139 3139 3138 3138 3139 3139 3140 3140 3140
3128 3128 3130 3132 3133 3134 3135 3136 3138 3138 3139 3139 3139 3140 3141 3142 3142 3142 3142 3142 3141 3141 3141 3141 3141 3140 3140 3139 3138 3138 3138 3138 3137 3137 3137 3138 3137 3136 3137 3137 3137 3138 3137
3126 3127 3128 3130 3131 3131 3133 3134 3136 3138 3137 3137 3138 3139 3140 3141 3141 3141 3141 3140 3140 3139 3139 3139 3138 3138 3136 3136 3135 3135 3135 3135 3135 3134 3134 3135 3135 3134 3134 3135 3135 3135 3135
3123 3125 3127 3127 3128 3130 3132 3132 3135 3135 3135 3135 3136 3138 3139 3140 3140 3140 3139 3139 3138 3137 3137 3137 3136 3136 3134 3134 3133 3132 3132 3132 3132 3131 3131 3130 3130 3130 3131 3132 3132 3133 3133
3121 3122 3124 3124 3126 3128 3130 3133 3133 3134 3134 3134 3135 3136 3137 3139 3138 3138 3137 3137 3136 3136 3135 3134 3133 3133 3132 3132 3131 3130 3130 3130 3129 3128 3128 3127 3127 3126 3126 3126 3127 3128 3128
3117 3119 3120 3122 3124 3127 3128 3130 3131 3132 3132 3134 3134 3134 3135 3136 3137 3135 3135 3136 3135 3134 3133 3132 3131 3131 3130 3129 3129 3128 3127 3126 3125 3125 3124 3123 3123 3122 3121 3121 3122 3122 3122
3113 3116 3119 3119 3122 3124 3126 3128 3128 3129 3131 3132 3132 3133 3132 3134 3134 3134 3135 3135 3132 3132 3131 3129 3129 3128 3127 3126 3125 3124 3123 3123 3122 3121 3119 3118 3118 3117 3116 3116 3116 3116 3116
3111 3113 3115 3117 3119 3121 3124 3125 3126 3127 3128 3129 3130 3130 3131 3132 3132 3132 3133 3131 3131 3129 3128 3126 3126 3125 3124 3123 3121 3120 3119 3118 3117 3116 3115 3114 3113 3112 3111 3110 3110 3110 3110
3107 3110 3112 3114 3116 3119 3120 3122 3123 3124 3127 3127 3127 3128 3129 3130 3130 3130 3130 3129 3127 3125 3124 3123 3123 3122 3120 3119 3117 3116 3115 3113 3111 3110 3109 3108 3108 3106 3105 3104 3104 3103 3103
3105 3106 3108 3110 3112 3115 3118 3119 3120 3121 3125 3124 3125 3125 3126 3127 3127 3128 3127 3125 3123 3122 3121 3120 3119 3118 3117 3115 3113 3111 3109 3107 3106 3104 3103 3102 3101 3100 3099 3097 3096 3095 3094
3101 3102 3104 3106 3109 3111 3114 3115 3116 3120 3121 3121 3122 3122 3123 3123 3124 3124 3122 3122 3121 3120 3118 3116 3115 3114 3112 3111 3108 3106 3104 3102 3100 3098 3097 3096 3094 3092 3090 3089 3087 3086 3085
3095 3098 3100 3103 3105 3107 3109 3111 3113 3117 3117 3118 3118 3118 3119 3120 3121 3120 3120 3119 3117 3116 3114 3112 3111 3109 3107 3105 3103 3101 3097 3095 3093 3092 3090 3087 3085 3083 3081 3078 3076 3074 3073
3091 3094 3096 3098 3100 3102 3106 3108 3110 3112 3113 3114 3114 3115 3115 3116 3116 3116 3116 3114 3113 3111 3110 3108 3106 3104 3102 3100 3097 3094 3091 3089 3087 3084 3082 3079 3077 3074 3070 3067 3065 3062 3060
3087 3089 3091 3093 3095 3097 3102 3104 3106 3107 3108 3109 3109 3110 3111 3111 3111 3111 3110 3110 3108 3106 3104 3103 3100 3098 3096 3093 3090 3087 3083 3081 3079 3076 3074 3070 3067 3063 3059 3055 3052 3048 3044
3080 3083 3085 3087 3089 3092 3097 3099 3101 3102 3104 3104 3105 3105 3106 3106 3106 3105 3105 3104 3103 3101 3099 3097 3094 3092 3090 3087 3083 3079 3076 3073 3070 3067 3063 3059 3055 3050 3047 3042 3037 3033 3028
3074 3076 3078 3081 3084 3088 3091 3094 3095 3097 3099 3099 3100 3100 3100 3100 3100 3099 3099 3099 3097 3095 3093 3090 3088 3085 3081 3079 3076 3072 3067 3066 3062 3058 3053 3049 3042 3036 3031 3025 3018 3012 3007
3066 3069 3072 3075 3078 3081 3085 3087 3089 3091 3093 3094 3094 3095 3095 3094 3094 3094 3094 3093 3091 3089 3087 3083 3080 3075 3072 3070 3068 3065 3060 3057 3054 3050 3045 3039 3031 3026 3020 3011 3003 2996 2989
3057 3061 3064 3067 3071 3074 3076 3079 3083 3086 3088 3089 3089 3089 3089 3089 3089 3089 3088 3087 3084 3083 3080 3078 3073 3068 3063 3061 3059 3058 3053 3047 3045 3041 3036 3029 3020 3013 3008 2998 2989 2980 2973
3050 3054 3057 3060 3064 3066 3070 3074 3077 3080 3081 3082 3082 3082 3083 3083 3083 3083 3082 3080 3079 3076 3074 3071 3067 3062 3056 3051 3046 3042 3038 3037 3030 3028 3024 3018 3009 3000 2992 2984 2975 2964 2955
3042 3045 3048 3052 3057 3059 3063 3066 3069 3070 3071 3073 3077 3078 3077 3077 3077 3077 3076 3075 3073 3071 3067 3064 3060 3055 3050 3044 3039 3034 3023 3018 3011 3012 3010 3003 2996 2986 2976 2967 2958 2947 2938
3033 3037 3041 3045 3049 3050 3054 3058 3061 3063 3066 3071 3071 3070 3071 3071 3071 3071 3071 3069 3067 3065 3061 3056 3052 3048 3043 3038 3032 3027 3020 3010 2998 2989 2988 2985 2982 2974 2966 2955 2944 2933 2926
3025 3030 3035 3038 3040 3042 3046 3049 3053 3055 3059 3062 3062 3063 3065 3066 3066 3066 3065 3063 3061 3058 3054 3050 3045 3041 3036 3031 3025 3019 3014 3007 2998 2986 2974 2974 2971 2966 2962 2951 2936 2925 2917
3014 3019 3022 3026 3030 3034 3037 3041 3045 3048 3051 3054 3055 3057 3058 3059 3060 3060 3058 3057 3054 3051 3047 3043 3039 3034 3029 3024 3018 3011 3004 2996 2990 2980 2968 2962 2955 2957 2953 2943 2926 2916 2909